{"data":{"norad_id":63294,"epoch":"2026-05-25T04:39:30.312576Z","epoch_age_seconds":68329,"freshness":"FRESH","line1":"1 63294U 25055D   26145.19410084  .00008713  00000+0  45303-3 0  9992","line2":"2 63294  97.6488 284.7930 0014696 213.8537 146.1759 15.16220290 65525","mean_motion":15.1622029,"eccentricity":0.0014696,"inclination_deg":97.6488,"raan_deg":284.793,"arg_perigee_deg":213.8537,"mean_anomaly_deg":146.1759,"bstar":0.00045303,"rev_number":6552,"period_min":94.97300685773,"perigee_km":507.14284946121,"apogee_km":527.40984837635,"semimajor_km":6895.4133489188,"source":"CELESTRAK","updated_at":"2026-05-25T13:38:03.645982Z"}}